Location: Champs
(48.8539°N, 2.6040°E)
Time: 04:41:01
(UTC+00:00)

ATLAS CENTAUR R/B - Pass Details

Date: 26 October 2021
Orbit: 452 x 689 km, 64.7° (Epoch: 28 November)

Event Time Altitude Azimuth Distance (km) Brightness Sun altitude
Exits shadow 05:34:34 - 319° (NW) 2,329 4.1 -9.2°
Reaches altitude 10° 05:36:51 10° 344° (NNW) 1,979 3.9 -8.9°
Maximum altitude 05:37:56 11° 358° (N) 1,947 4.0 -8.7°
Drops below altitude 10° 05:39:03 10° 12° (NNE) 2,014 4.2 -8.5°
Sets 05:43:25 0° 50° (NE) 2,986 5.7 -7.8°
